Location: Agus-us
(14.2247°N, 120.8593°E)
Time: 17:46:51
(UTC+00:00)

ARIANE 6 FM1 Upper Stage - Pass Details

Date: 13 December 2025
Orbit: 522 x 610 km, 62.0° (Epoch: 20 January)

Event Time Altitude Azimuth Distance (km) Brightness Sun altitude
Rises 20:42:03 0° 189° (S) 2,764 6.3 -21.2°
Reaches altitude 10° 20:44:27 10° 180° (S) 1,851 5.5 -20.6°
Maximum altitude 20:48:15 34° 114° (ESE) 913 4.4 -19.7°
Drops below altitude 10° 20:51:57 10° 49° (NE) 1,803 5.6 -18.9°
Sets 20:54:15 0° 40° (NE) 2,681 6.4 -18.4°
